Location: Guferjoch
(46.7462°N, 8.4506°E)
Time: 00:11:26
(UTC+00:00)

BREEZE-M DEB (TANK) - Pass Details

Date: 14 July 2020
Orbit: 274 x 20504 km, 49.2° (Epoch: 03 August)

Event Time Altitude Azimuth Distance (km) Brightness Sun altitude
Exits shadow 01:56:04 - 281° (W) 1,734 5.1 -14.3°
Reaches altitude 10° 01:56:29 10° 278° (W) 1,554 4.9 -14.3°
Maximum altitude 01:59:20 46° 202° (SSW) 975 3.6 -14.0°
Drops below altitude 10° 02:08:17 10° 132° (SE) 4,819 7.5 -13.1°
Sets 02:16:12 0° 130° (SE) 8,136 8.7 -12.3°
